Location: Knowlton
(51.2333°N, 1.2667°E)
Time: 10:22:46
(UTC+00:00)

SL-16 R/B - Pass Details

Date: 18 April 2021
Orbit: 840 x 849 km, 71.0° (Epoch: 05 May)

Event Time Altitude Azimuth Distance (km) Brightness Sun altitude
Rises 20:26:20 0° 331° (NNW) 3,426 6.7 -13.2°
Reaches altitude 10° 20:29:00 10° 340° (NNW) 2,486 5.6 -13.5°
Maximum altitude 20:34:17 37° 47° (NE) 1,293 3.1 -14.2°
Enters shadow 20:37:53 19° 105° (ESE) 1,940 3.5 -14.6°
